SCP
0 0 0 0 0 0 0 0 0 0 1 0 0 1 0 0 -0 0 -0 -1 -0 0 1 1 1 0 0 0 0 0 0 1
0 0 0 0 0 0 0 0 0 0 0 0 1 0 1 -1 -0 0 -0 -0 -0 -0 -0 1 0 0 0 1 1 1 0 0
-0 -0 0 0 0 0 3 0 -0 1 0 0 1 -0 -0 1 2 1 0 1 2 1 1 0 1 2 1 1 1 1 0 0
0 0 -0 -0 0 0 0 1 3 3 2 1 2 1 0 1 4 3 1 1 1 1 -0 -0 1 1 1 1 1 1 1 0
0 0 0 0 0 0 0 -0 1 2 4 0 0 -0 -0 2 3 3 1 2 1 0 0 0 1 1 1 0 1 1 1 0
0 0 0 0 1 1 1 2 1 0 0 0 0 -0 -0 0 0 1 1 -0 0 0 1 1 1 1 1 1 1 1 1 0
0 0 0 0 0 0 1 1 1 1 0 0 0 -0 -0 0 -0 -0 0 1 1 1 1 1 1 1 0 1 1 1 1 1
0 0 0 0 0 0 0 0 0 1 1 1 0 -0 -0 -0 0 0 0 1 1 1 1 2 1 1 1 1 2 2 1 1
0 0 0 0 0 0 0 0 0 0 0 0 1 2 1 0 1 0 0 0 1 1 1 1 1 2 2 2 1 1 1 1
0 0 0 0 0 0 0 0 0 0 0 0 0 0 2 0 0 0 0 0 0 0 0 0 1 1 2 2 2 1 1 1
0 0 0 0 0 0 0 0 0 0 0 0 0 0 0 0 0 0 0 0 0 0 1 1 1 1 1 2 2 2 1 1
0 0 0 0 0 0 0 0 0 0 0 0 0 0 0 0 0 0 0 0 0 0 0 0 0 0 0 0 1 2 1 1
0 0 0 0 0 0 0 0 0 0 0 0 0 0 0 0 0 0 0 0 0 0 0 0 0 0 0 0 0 0 1 1
0 0 0 0 0 0 0 0 0 0 0 0 0 0 0 0 0 0 0 0 0 0 0 0 0 0 0 0 0 0 0 0
0 0 0 0 0 0 0 0 0 0 0 0 0 0 0 0 0 0 0 0 0 0 0 0 0 0 0 0 0 0 0 0
0 0 0 0 0 0 0 0 0 0 0 0 0 0 0 0 0 0 0 0 0 0 0 0 0 0 0 0 0 0 0 0
0 0 0 0 0 0 0 0 0 0 0 0 0 0 0 0 0 0 0 0 0 0 0 0 0 0 0 0 0 0 0 0
0 0 0 0 0 0 0 0 0 0 0 0 0 0 0 0 0 0 0 0 0 0 0 0 0 0 0 0 0 0 0 0
0 0 0 0 0 0 0 0 0 0 0 0 0 0 0 0 0 0 0 0 0 0 0 0 0 0 0 0 -0 -0 -0 0
0 0 0 0 0 0 0 0 0 0 0 0 0 0 0 0 0 0 0 0 0 0 0 0 0 0 0 0 0 0 0 0
Wind_Speed_500mb
13 28 53 52 38 34 28 8 7 18 13 5 11 12 8 11 4 11 12 12 6 4 18 20 17 17 24 18 27 22 14 22
35 36 48 27 13 36 29 16 22 18 24 14 9 22 34 37 9 7 9 4 4 3 7 10 9 8 19 23 22 15 28 33
34 13 21 49 43 21 18 5 31 11 15 19 17 32 19 18 19 9 13 17 19 16 13 9 19 15 26 26 24 24 32 38
32 30 25 49 27 36 35 33 43 26 26 23 17 29 26 28 12 4 14 7 8 8 9 19 10 24 34 30 27 27 34 33
32 28 25 20 40 26 11 22 17 19 19 19 22 27 61 29 14 9 20 16 6 12 11 16 23 20 28 34 26 30 28 28
26 23 15 24 32 30 21 27 14 13 21 23 19 43 64 96 70 26 29 7 12 9 11 19 22 28 34 29 23 32 28 27
32 22 18 11 21 29 29 25 20 14 13 16 31 63 71 47 33 26 25 18 13 20 16 17 26 29 30 22 29 30 28 31
31 33 24 18 14 18 20 20 16 6 4 12 14 20 26 15 22 25 27 16 18 22 18 18 24 35 16 20 24 25 29 29
30 29 33 29 29 34 28 16 17 11 12 15 13 15 5 13 12 21 25 22 18 21 28 23 19 19 27 28 34 36 35 27
26 29 32 34 34 34 30 27 30 26 22 21 22 18 22 16 6 24 31 27 31 29 33 34 27 30 31 29 36 39 37 32
28 29 30 29 34 33 32 31 32 29 28 25 18 11 6 19 22 26 37 35 33 33 34 39 36 36 37 31 33 33 36 38
21 25 27 29 29 30 33 32 31 32 32 34 37 36 36 36 36 39 45 37 23 31 24 34 39 42 43 43 46 38 40 46
19 21 23 26 28 33 38 36 36 37 39 38 38 40 41 43 45 51 48 40 34 31 31 42 41 39 44 51 51 51 42 45
14 17 20 21 24 25 31 36 39 41 41 41 42 41 45 45 49 48 47 50 50 34 47 51 54 48 48 53 59 66 61 56
10 17 19 22 25 27 28 36 38 39 40 44 42 46 45 45 45 53 58 53 44 44 52 53 63 59 53 55 51 52 54 57
11 14 16 20 23 26 30 34 33 35 37 39 41 39 39 38 46 50 46 41 46 50 53 54 52 46 43 46 50 44 46 51
6 11 16 18 22 27 29 31 33 35 37 37 40 50 50 46 46 41 42 45 48 45 44 44 41 37 39 38 39 39 38 44
10 12 14 17 22 26 29 32 33 33 33 38 39 41 40 38 37 40 40 43 44 40 37 41 43 42 44 38 31 31 34 39
12 13 15 19 23 28 30 31 32 35 37 40 41 40 39 35 32 32 32 33 36 38 39 36 36 41 37 35 30 28 29 26
13 14 18 20 25 28 28 30 29 33 35 33 27 30 31 35 38 37 34 36 32 32 37 36 34 32 35 36 32 32 29 33
Wind_Direction_500mb
20 49 40 38 56 51 34 351 198 189 238 38 101 276 313 325 235 251 89 181 211 314 312 307 308 334 328 329 308 308 296 263
89 203 205 254 26 9 31 305 263 328 308 271 242 271 279 238 229 227 150 39 349 331 249 327 330 336 314 317 300 272 276 277
90 97 193 178 177 158 188 218 254 282 302 301 274 277 334 154 216 261 199 197 222 245 248 270 250 289 277 285 288 292 285 281
82 77 152 182 211 223 244 217 244 236 255 263 305 311 291 276 188 228 278 256 257 290 350 348 288 283 287 295 292 283 281 291
77 110 146 171 232 248 228 216 246 238 229 234 266 282 346 259 192 224 286 261 261 332 353 295 296 292 293 312 318 312 314 320
56 52 108 150 151 180 179 170 216 213 220 235 338 298 311 1 17 43 298 341 1 336 287 286 285 277 286 289 287 281 296 290
45 48 49 108 157 175 173 178 184 205 256 294 327 339 304 328 339 316 318 317 331 292 292 302 305 294 302 309 296 296 312 311
46 46 35 48 78 97 124 149 171 148 344 353 4 11 9 12 307 318 306 297 293 302 303 306 307 309 299 289 279 280 294 294
62 50 43 49 64 71 74 90 87 94 76 129 121 100 301 313 310 305 306 311 311 317 310 289 278 297 291 277 273 291 295 290
72 60 49 39 52 53 55 49 58 55 51 63 85 84 63 327 357 336 325 333 323 314 307 308 306 286 284 288 292 294 297 275
73 65 58 40 43 46 46 41 37 31 21 16 25 26 328 319 341 313 317 325 336 326 328 328 307 296 290 286 290 286 286 283
65 60 55 49 43 19 31 28 23 15 3 355 351 346 337 331 319 306 303 322 314 297 315 306 288 283 281 277 274 278 274 275
62 62 54 44 34 24 9 14 9 3 355 348 342 330 321 317 315 307 315 296 285 290 284 293 293 288 276 279 279 274 283 288
52 53 44 40 29 23 9 6 359 353 348 343 342 335 330 326 318 317 298 302 304 304 284 280 287 282 280 282 282 282 286 283
47 35 31 27 20 19 14 358 0 358 349 345 333 326 326 321 319 306 309 313 305 292 289 290 287 290 290 286 293 294 297 293
64 40 24 16 16 10 357 359 356 351 346 339 337 330 325 323 319 329 331 320 319 315 318 314 313 311 308 295 288 295 295 293
87 64 32 16 13 3 2 2 1 354 353 341 333 333 340 344 343 340 341 352 353 343 360 352 339 346 339 319 299 300 298 302
74 31 35 20 8 0 356 1 1 352 348 344 350 351 358 351 355 358 357 356 358 354 346 348 346 341 334 334 325 324 315 308
27 19 37 14 3 358 354 358 354 355 352 358 359 1 1 352 349 344 346 347 345 346 347 343 343 351 355 347 343 342 345 1
3 10 26 8 2 357 356 359 357 359 360 352 356 355 360 359 0 5 1 354 355 356 347 347 1 4 1 6 14 19 11 18
Wind_Speed_850mb
13 28 53 52 38 34 28 8 7 18 13 5 11 12 8 11 4 11 12 12 6 4 18 20 17 17 24 18 27 22 14 22
35 36 48 27 13 36 29 16 22 18 24 14 9 22 34 37 9 7 9 4 4 3 7 10 9 8 19 23 22 15 28 33
34 13 21 49 43 21 18 5 31 11 15 19 17 32 19 18 19 9 13 17 19 16 13 9 19 15 26 26 24 24 32 38
32 30 25 49 27 36 35 33 43 26 26 23 17 29 26 28 12 4 14 7 8 8 9 19 10 24 34 30 27 27 34 33
32 28 25 20 40 26 11 22 17 19 19 19 22 27 61 29 14 9 20 16 6 12 11 16 23 20 28 34 26 30 28 28
26 23 15 24 32 30 21 27 14 13 21 23 19 43 64 96 70 26 29 7 12 9 11 19 22 28 34 29 23 32 28 27
32 22 18 11 21 29 29 25 20 14 13 16 31 63 71 47 33 26 25 18 13 20 16 17 26 29 30 22 29 30 28 31
31 33 24 18 14 18 20 20 16 6 4 12 14 20 26 15 22 25 27 16 18 22 18 18 24 35 16 20 24 25 29 29
30 29 33 29 29 34 28 16 17 11 12 15 13 15 5 13 12 21 25 22 18 21 28 23 19 19 27 28 34 36 35 27
26 29 32 34 34 34 30 27 30 26 22 21 22 18 22 16 6 24 31 27 31 29 33 34 27 30 31 29 36 39 37 32
28 29 30 29 34 33 32 31 32 29 28 25 18 11 6 19 22 26 37 35 33 33 34 39 36 36 37 31 33 33 36 38
21 25 27 29 29 30 33 32 31 32 32 34 37 36 36 36 36 39 45 37 23 31 24 34 39 42 43 43 46 38 40 46
19 21 23 26 28 33 38 36 36 37 39 38 38 40 41 43 45 51 48 40 34 31 31 42 41 39 44 51 51 51 42 45
14 17 20 21 24 25 31 36 39 41 41 41 42 41 45 45 49 48 47 50 50 34 47 51 54 48 48 53 59 66 61 56
10 17 19 22 25 27 28 36 38 39 40 44 42 46 45 45 45 53 58 53 44 44 52 53 63 59 53 55 51 52 54 57
11 14 16 20 23 26 30 34 33 35 37 39 41 39 39 38 46 50 46 41 46 50 53 54 52 46 43 46 50 44 46 51
6 11 16 18 22 27 29 31 33 35 37 37 40 50 50 46 46 41 42 45 48 45 44 44 41 37 39 38 39 39 38 44
10 12 14 17 22 26 29 32 33 33 33 38 39 41 40 38 37 40 40 43 44 40 37 41 43 42 44 38 31 31 34 39
12 13 15 19 23 28 30 31 32 35 37 40 41 40 39 35 32 32 32 33 36 38 39 36 36 41 37 35 30 28 29 26
13 14 18 20 25 28 28 30 29 33 35 33 27 30 31 35 38 37 34 36 32 32 37 36 34 32 35 36 32 32 29 33
Wind_Direction_850mb
20 49 40 38 56 51 34 351 198 189 238 38 101 276 313 325 235 251 89 181 211 314 312 307 308 334 328 329 308 308 296 263
89 203 205 254 26 9 31 305 263 328 308 271 242 271 279 238 229 227 150 39 349 331 249 327 330 336 314 317 300 272 276 277
90 97 193 178 177 158 188 218 254 282 302 301 274 277 334 154 216 261 199 197 222 245 248 270 250 289 277 285 288 292 285 281
82 77 152 182 211 223 244 217 244 236 255 263 305 311 291 276 188 228 278 256 257 290 350 348 288 283 287 295 292 283 281 291
77 110 146 171 232 248 228 216 246 238 229 234 266 282 346 259 192 224 286 261 261 332 353 295 296 292 293 312 318 312 314 320
56 52 108 150 151 180 179 170 216 213 220 235 338 298 311 1 17 43 298 341 1 336 287 286 285 277 286 289 287 281 296 290
45 48 49 108 157 175 173 178 184 205 256 294 327 339 304 328 339 316 318 317 331 292 292 302 305 294 302 309 296 296 312 311
46 46 35 48 78 97 124 149 171 148 344 353 4 11 9 12 307 318 306 297 293 302 303 306 307 309 299 289 279 280 294 294
62 50 43 49 64 71 74 90 87 94 76 129 121 100 301 313 310 305 306 311 311 317 310 289 278 297 291 277 273 291 295 290
72 60 49 39 52 53 55 49 58 55 51 63 85 84 63 327 357 336 325 333 323 314 307 308 306 286 284 288 292 294 297 275
73 65 58 40 43 46 46 41 37 31 21 16 25 26 328 319 341 313 317 325 336 326 328 328 307 296 290 286 290 286 286 283
65 60 55 49 43 19 31 28 23 15 3 355 351 346 337 331 319 306 303 322 314 297 315 306 288 283 281 277 274 278 274 275
62 62 54 44 34 24 9 14 9 3 355 348 342 330 321 317 315 307 315 296 285 290 284 293 293 288 276 279 279 274 283 288
52 53 44 40 29 23 9 6 359 353 348 343 342 335 330 326 318 317 298 302 304 304 284 280 287 282 280 282 282 282 286 283
47 35 31 27 20 19 14 358 0 358 349 345 333 326 326 321 319 306 309 313 305 292 289 290 287 290 290 286 293 294 297 293
64 40 24 16 16 10 357 359 356 351 346 339 337 330 325 323 319 329 331 320 319 315 318 314 313 311 308 295 288 295 295 293
87 64 32 16 13 3 2 2 1 354 353 341 333 333 340 344 343 340 341 352 353 343 360 352 339 346 339 319 299 300 298 302
74 31 35 20 8 0 356 1 1 352 348 344 350 351 358 351 355 358 357 356 358 354 346 348 346 341 334 334 325 324 315 308
27 19 37 14 3 358 354 358 354 355 352 358 359 1 1 352 349 344 346 347 345 346 347 343 343 351 355 347 343 342 345 1
3 10 26 8 2 357 356 359 357 359 360 352 356 355 360 359 0 5 1 354 355 356 347 347 1 4 1 6 14 19 11 18